Weather reports worldwide

Advertisment
Rostherne No 2, United Kingdom (3351): temperature & dewpoint: 12.09.2019 05:00:00 - 18.09.2019 05:00:00 (BST)Rostherne No 2, United Kingdom (3351): wind speed: 12.09.2019 05:00:00 - 18.09.2019 05:00:00 (BST)Rostherne No 2, United Kingdom (3351): wind direction: 12.09.2019 05:00:00 - 18.09.2019 05:00:00 (BST)Rostherne No 2, United Kingdom (3351): reduced air pressure: 12.09.2019 05:00:00 - 18.09.2019 05:00:00 (BST)Rostherne No 2, United Kingdom (3351): visibility: 12.09.2019 05:00:00 - 18.09.2019 05:00:00 (BST)Rostherne No 2, United Kingdom (3351): sunshine duration: 12.09.2019 05:00:00 - 18.09.2019 05:00:00 (BST)Rostherne No 2, United Kingdom (3351): precipitation: 12.09.2019 05:00:00 - 18.09.2019 05:00:00 (BST)
Date & Time tt [°C] td [°C] ff [km/h] ff [kn] dd ppp [hPa] vv [km] sd [min] rr [mm]
18.09.2019 05:00:00 4,1 4,1 2 1 E 1029,6 9 0 -
18.09.2019 04:00:00 4,3 4,2 2 1 E 1029,7 2,5 0 0,0
18.09.2019 03:00:00 5,7 5,6 2 1 SE 1029,5 6 0 0,0
18.09.2019 02:00:00 6,1 6,0 5 3 SE 1029,5 10 0 0,0
18.09.2019 01:00:00 6,4 6,2 5 3 SSE 1029,3 14 - 0,0
18.09.2019 00:00:00 6,6 6,4 5 3 SE 1029,3 15 0 0,0
17.09.2019 23:00:00 6,8 6,3 2 1 SE 1028,9 19 0 0,0
17.09.2019 22:00:00 7,2 6,3 2 1 E 1028,9 22 0 0,0
17.09.2019 21:00:00 9,0 7,3 4 2 NW 1028,3 26 0 0,0
17.09.2019 20:00:00 10,7 7,7 5 3 NW 1027,8 40 12 0,0
17.09.2019 19:00:00 13,3 8,1 11 6 NW 1027,3 30 60 0,0
17.09.2019 18:00:00 15,2 8,3 15 8 NW 1027,1 24 60 0,0
17.09.2019 17:00:00 15,9 9,1 16 9 NW 1026,9 35 54 0,0
17.09.2019 16:00:00 16,7 8,5 16 9 NNW 1026,9 30 54 0,0
17.09.2019 15:00:00 15,7 7,8 16 9 NW 1026,9 24 42 0,0
17.09.2019 14:00:00 15,9 7,6 15 8 NNW 1026,8 40 54 0,0
17.09.2019 13:00:00 16,2 8,1 16 9 NNW 1026,9 25 60 0,0
17.09.2019 12:00:00 15,6 7,7 16 9 NNW 1026,8 30 60 0,0
17.09.2019 11:00:00 14,9 8,0 13 7 NNW 1026,7 30 60 0,0
17.09.2019 10:00:00 13,8 9,4 13 7 NNW 1026,4 30 60 0,0
17.09.2019 09:00:00 12,0 11,7 8 4 NNW 1026,1 23 60 0,0
17.09.2019 08:00:00 9,1 9,1 4 2 WNW 1025,9 30 36 0,0
17.09.2019 07:00:00 9,0 8,9 2 1 W 1025,3 21 0 0,0
17.09.2019 06:00:00 8,8 8,8 0 0 N 1024,8 24 0 0,0
17.09.2019 05:00:00 8,6 8,6 4 2 S 1024,6 21 0 0,0
17.09.2019 04:00:00 8,5 8,5 4 2 SE 1024,9 20 0 0,0
17.09.2019 03:00:00 7,8 7,8 2 1 W 1024,9 17 0 0,0
17.09.2019 02:00:00 5,6 5,4 4 2 SE 1024,7 10 0 0,0
17.09.2019 01:00:00 7,1 6,9 4 2 W 1024,7 15 - 0,0
17.09.2019 00:00:00 7,1 7,0 2 1 W 1024,6 1,2 0 0,0
16.09.2019 23:00:00 7,4 7,2 4 2 SE 1024,7 15 0 0,0
16.09.2019 22:00:00 8,0 7,5 2 1 S 1024,8 22 0 0,0
16.09.2019 21:00:00 8,8 7,7 2 1 WSW 1024,7 25 0 0,0
16.09.2019 20:00:00 10,9 8,3 5 3 NW 1024,3 45 12 0,0
16.09.2019 19:00:00 13,1 8,0 13 7 NNW 1023,7 40 48 0,0
16.09.2019 18:00:00 14,8 8,4 15 8 NNW 1023,6 50 60 0,0
16.09.2019 17:00:00 15,4 8,3 16 9 NNW 1023,2 40 54 0,0
16.09.2019 16:00:00 15,8 9,5 15 8 NW 1023,2 30 30 0,0
16.09.2019 15:00:00 16,6 10,6 15 8 NW 1023,2 28 18 0,0
16.09.2019 14:00:00 16,0 10,9 9 5 NW 1023,3 28 12 0,0
16.09.2019 13:00:00 15,3 9,4 5 3 N 1023,6 16 6 0,0
16.09.2019 12:00:00 15,7 10,3 5 3 ENE 1023,3 30 48 0,0
16.09.2019 11:00:00 14,3 11,3 8 4 N 1023,2 26 12 0,0
16.09.2019 10:00:00 13,3 13,0 4 2 NNW 1022,9 14 0 0,0
16.09.2019 09:00:00 12,3 12,3 4 2 NNW 1022,6 8 0 0,0
16.09.2019 08:00:00 11,7 11,7 5 3 NNW 1022,0 3,4 0 0,0
16.09.2019 07:00:00 11,6 11,6 8 4 NW 1021,5 3,5 0 0,0
16.09.2019 06:00:00 11,8 11,8 4 2 NW 1021,5 3,2 0 0,0
16.09.2019 05:00:00 11,8 11,8 5 3 NNW 1021,5 3,4 0 0,0
16.09.2019 04:00:00 11,9 11,9 5 3 NW 1022,1 3,6 0 0,2
16.09.2019 03:00:00 12,0 12,0 4 2 NNW 1022,3 2,9 0 0,2
16.09.2019 02:00:00 12,0 12,0 5 3 N 1022,5 2,4 0 0,8
16.09.2019 01:00:00 12,1 11,9 4 2 NW 1022,5 2,1 - 1,0
16.09.2019 00:00:00 12,0 11,9 2 1 NNE 1022,8 2,8 0 0,8
15.09.2019 23:00:00 12,1 11,9 4 2 N 1023,1 2,2 0 0,8
15.09.2019 22:00:00 12,1 11,9 5 3 N 1023,0 1,9 0 0,8
15.09.2019 21:00:00 12,3 11,8 5 3 NW 1023,1 3,6 0 0,4
15.09.2019 20:00:00 12,6 12,0 4 2 NNW 1023,1 7 0 0,6
15.09.2019 19:00:00 13,0 11,8 5 3 N 1023,3 11 0 0,0
15.09.2019 18:00:00 13,2 12,1 2 1 NW 1023,5 14 0 0,0
15.09.2019 17:00:00 13,2 11,6 8 4 NNW 1023,8 2,3 0 0,0
15.09.2019 16:00:00 14,3 12,0 9 5 NNW 1024,1 16 0 0,0
15.09.2019 15:00:00 15,2 12,3 9 5 WNW 1024,2 19 0 0,0
15.09.2019 14:00:00 15,1 12,6 9 5 WNW 1024,5 28 0 0,0
15.09.2019 13:00:00 14,9 12,8 11 6 WNW 1024,5 23 0 0,0
15.09.2019 12:00:00 13,8 13,4 5 3 WNW 1024,5 17 0 0,0
15.09.2019 11:00:00 14,0 13,3 13 7 NNW 1024,8 19 0 0,0
15.09.2019 10:00:00 13,7 13,6 13 7 NNW 1024,6 3,6 0 0,4
15.09.2019 09:00:00 14,2 14,1 8 4 WSW 1024,0 3,7 0 0,6
15.09.2019 08:00:00 13,5 13,3 9 5 SSW 1023,7 1,8 0 0,4
15.09.2019 07:00:00 13,4 13,0 8 4 SW 1023,5 3,5 0 0,0
15.09.2019 06:00:00 13,0 11,8 5 3 S 1023,6 3,7 0 0,0
15.09.2019 05:00:00 13,5 10,7 8 4 SSW 1023,7 29 0 0,0
15.09.2019 04:00:00 13,3 10,2 9 5 SSW 1023,7 40 0 0,0
15.09.2019 03:00:00 13,6 9,2 9 5 S 1024,0 40 0 0,0
15.09.2019 02:00:00 12,9 9,9 9 5 S 1024,4 35 0 0,0
15.09.2019 01:00:00 12,3 10,0 5 3 S 1025,1 27 - 0,0
15.09.2019 00:00:00 13,0 10,9 9 5 S 1025,4 23 0 0,0
14.09.2019 23:00:00 13,5 11,3 8 4 SW 1026,0 27 0 0,0
14.09.2019 22:00:00 13,4 10,6 4 2 SSW 1026,5 26 0 0,0
14.09.2019 21:00:00 14,8 10,6 9 5 S 1026,6 45 0 0,0
14.09.2019 20:00:00 15,3 8,8 4 2 S 1027,1 27 6 0,0
14.09.2019 19:00:00 18,0 10,1 8 4 SW 1026,8 40 18 0,0
14.09.2019 18:00:00 18,7 9,9 11 6 W 1027,3 40 30 0,0
14.09.2019 17:00:00 20,5 10,9 11 6 WSW 1027,9 35 60 0,0
14.09.2019 16:00:00 20,7 10,9 13 7 W 1028,9 24 60 0,0
14.09.2019 15:00:00 19,3 9,9 11 6 SW 1029,7 35 18 0,0
14.09.2019 14:00:00 18,3 8,7 15 8 SW 1030,7 45 48 0,0
14.09.2019 13:00:00 17,9 9,8 15 8 SSW 1031,5 27 60 0,0
14.09.2019 12:00:00 16,6 9,8 13 7 SSW 1032,3 29 60 0,0
14.09.2019 11:00:00 14,3 10,4 11 6 S 1033,1 26 60 0,0
14.09.2019 10:00:00 12,8 10,2 9 5 S 1033,4 28 60 0,0
14.09.2019 09:00:00 9,9 9,9 8 4 SSE 1034,0 19 60 0,0
14.09.2019 08:00:00 6,3 6,3 4 2 SE 1034,1 9 18 0,0
14.09.2019 07:00:00 2,9 2,9 8 4 SE 1034,2 3,7 0 0,0
14.09.2019 06:00:00 3,2 3,1 5 3 SE 1034,7 1,5 0 0,0
14.09.2019 05:00:00 4,4 4,4 5 3 SE 1035,2 14 0 0,0
14.09.2019 04:00:00 3,5 3,4 5 3 SE 1035,8 5 0 0,0
14.09.2019 03:00:00 3,7 3,6 2 1 E 1036,4 0,8 0 0,0
14.09.2019 02:00:00 4,3 4,1 4 2 ESE 1036,7 6 0 0,0
14.09.2019 01:00:00 3,9 3,6 4 2 ESE 1036,6 2,8 - 0,0
14.09.2019 00:00:00 5,2 4,9 8 4 SSE 1037,0 17 0 0,0
13.09.2019 23:00:00 6,2 5,7 2 1 ESE 1037,1 20 0 0,0
13.09.2019 22:00:00 7,0 6,2 0 0 N 1037,3 22 0 0,0
13.09.2019 21:00:00 9,0 6,9 4 2 W 1037,3 30 0 0,0
13.09.2019 20:00:00 10,7 6,9 5 3 NW 1037,0 40 24 0,0
13.09.2019 19:00:00 14,3 7,2 5 3 NW 1036,6 30 60 0,0
13.09.2019 18:00:00 15,8 7,6 11 6 NNW 1036,3 40 54 0,0
13.09.2019 17:00:00 17,1 9,1 15 8 NW 1036,3 26 36 0,0
13.09.2019 16:00:00 18,2 9,9 11 6 NW 1036,6 50 54 0,0
13.09.2019 15:00:00 18,3 10,6 15 8 WNW 1036,6 26 24 0,0
13.09.2019 14:00:00 17,1 8,2 13 7 NNW 1036,6 30 36 0,0
13.09.2019 13:00:00 17,8 9,9 11 6 NNW 1036,5 30 42 0,0
13.09.2019 12:00:00 17,1 9,5 8 4 NW 1036,6 50 54 0,0
13.09.2019 11:00:00 14,9 10,0 8 4 NNW 1036,3 25 42 0,0
13.09.2019 10:00:00 13,6 10,9 5 3 S 1036,2 22 60 0,0
13.09.2019 09:00:00 11,3 11,2 5 3 SSE 1035,9 19 54 0,0
13.09.2019 08:00:00 8,3 8,3 5 3 SE 1035,0 19 36 0,0
13.09.2019 07:00:00 6,2 6,2 5 3 NW 1034,1 19 0 0,0
13.09.2019 06:00:00 5,4 5,2 5 3 WNW 1033,5 10 0 0,0
13.09.2019 05:00:00 6,3 5,9 4 2 SSW 1033,0 1,2 0 0,0
13.09.2019 04:00:00 7,6 7,3 4 2 SW 1032,6 16 0 0,0
13.09.2019 03:00:00 7,5 6,4 2 1 ENE 1032,1 17 0 0,0
13.09.2019 02:00:00 9,6 8,3 9 5 NNW 1031,3 25 0 0,0
13.09.2019 01:00:00 10,2 8,6 11 6 NW 1030,5 26 - 0,0
13.09.2019 00:00:00 11,1 9,5 11 6 NW 1029,8 21 0 0,0
12.09.2019 23:00:00 12,8 11,0 11 6 WNW 1029,4 20 0 0,0
12.09.2019 22:00:00 14,1 12,7 15 8 NW 1028,4 26 0 0,0
12.09.2019 21:00:00 14,9 13,9 18 10 WNW 1027,2 25 0 0,0
12.09.2019 20:00:00 16,5 15,6 22 12 WNW 1025,4 23 0 0,2
12.09.2019 19:00:00 18,6 15,4 16 9 WSW 1023,8 50 0 0,0
12.09.2019 18:00:00 18,8 15,6 15 8 WSW 1023,6 45 0 0,0
12.09.2019 17:00:00 18,9 14,6 15 8 WSW 1023,2 26 0 0,0
12.09.2019 16:00:00 19,4 13,6 15 8 SW 1022,8 30 0 0,0
12.09.2019 15:00:00 19,4 15,6 13 7 SW 1022,9 45 0 0,0
12.09.2019 14:00:00 20,3 16,3 18 10 SW 1022,7 35 6 0,0
12.09.2019 13:00:00 20,1 16,8 11 6 SW 1022,6 30 0 0,0
12.09.2019 12:00:00 18,5 15,3 11 6 SSW 1023,1 35 6 0,0
12.09.2019 11:00:00 17,4 14,6 13 7 SSW 1023,2 40 0 0,0
12.09.2019 10:00:00 16,1 13,8 13 7 S 1023,2 22 0 0,0
12.09.2019 09:00:00 14,6 12,9 15 8 S 1023,2 19 0 0,0
12.09.2019 08:00:00 13,5 12,3 9 5 SSW 1023,1 17 0 0,0
12.09.2019 07:00:00 12,9 11,6 9 5 S 1022,8 15 0 0,0
12.09.2019 06:00:00 12,9 11,6 9 5 SSW 1022,7 16 0 0,0
12.09.2019 05:00:00 12,6 11,2 9 5 SSW 1022,4 17 0 0,0

tt = temperature
td = dewpoint
ff = wind speed
dd = wind direction
ppp = reduced air pressure
vv = visibility
sd = sunshine duration
rr = precipitation

Next stations